#timestamp,LO_Frequency,Hit,StdDev 
1514620815.5,286047006.5,P
1514620835.4,286047007.9,Y
1514620855.2,286047004.4,P
1514620875.0,286047003.4,P
1514620876.0,286047003.4,N
1514620895.8,286047005.9,Y
1514620915.6,286046997.0,P
1514620935.5,286046998.1,N
1514620955.3,286046998.3,N
1514620975.1,286046997.8,N
1514620995.8,286046994.6,N
1514621015.7,286046991.8,N
1514621035.5,286046990.7,N
1514621055.3,286046991.2,N
1514621075.2,286046986.2,Y
1514621095.0,286046988.4,P
1514621095.9,286046988.4,P
1514621115.7,286046990.3,N
1514621135.6,286046991.4,N
1514621155.4,286046992.3,N
1514621175.2,286046992.2,Y
1514621195.1,286047001.5,P
1514621196.0,286047001.5,N
1514621215.8,286047002.4,N
1514621235.6,286047005.2,N
1514621255.5,286047008.7,N
1514621275.3,286047007.5,N
1514621295.1,286047006.2,N
1514621315.9,286047006.3,N
1514621335.7,286047008.8,N
1514621355.5,286047010.3,N
1514621375.4,286047010.6,N
1514621395.2,286047008.9,N
1514621415.0,286047008.2,N
1514621415.9,286047008.2,N
1514621435.8,286047008.6,N
1514621455.6,286047010.6,N
1514621475.4,286047010.4,N
1514621495.2,286047014.0,N
1514621515.1,286047014.8,Y
1514621516.0,286047014.8,P
1514621535.8,286047010.8,N
1514621555.7,286047009.3,N
1514621575.5,286047011.2,Y
1514621595.3,286047002.3,P
1514621615.2,286047002.7,N
1514621635.9,286047001.2,N
1514621655.7,286046999.9,N
1514621675.6,286047000.4,N
1514621695.4,286047001.9,N
1514621715.2,286047004.2,N
1514621735.0,286047002.9,N
1514621735.9,286047002.9,N
1514621755.8,286047004.2,N
1514621775.6,286047003.4,N
1514621795.4,286047005.1,N
1514621815.3,286047006.1,N
1514621835.1,286047013.4,Y
1514621855.8,286047017.1,P
1514621875.7,286047020.2,N
1514621895.5,286047020.1,N
1514621915.3,286047017.8,N
1514621935.2,286047019.4,Y
1514621955.9,286047001.3,P
1514621975.7,286047000.4,N
1514621995.6,286047004.3,N
1514622015.4,286047009.2,N
1514622035.2,286047008.2,N
1514622055.1,286047009.0,N
1514622056.0,286047009.0,N
1514622075.8,286047004.7,N
1514622095.6,286047004.5,N
1514622115.5,286047009.1,N
1514622135.3,286047007.9,N
1514622155.1,286047009.3,N
1514622175.9,286047012.2,Y
1514622195.7,286047007.5,P
1514622215.5,286047010.6,P
1514622235.4,286047010.2,P
1514622255.2,286047008.1,Y
1514622275.0,286046995.3,P
1514622275.9,286046995.3,N
1514622295.8,286046995.7,N
1514622315.6,286046993.3,N
1514622335.4,286046997.7,N
1514622355.2,286046997.1,N
1514622375.1,286046997.6,N
1514622376.0,286046997.6,N
1514622395.8,286046998.4,N
1514622415.6,286046996.9,N
1514622435.5,286046999.3,N
1514622455.3,286047007.6,N
1514622475.1,286047003.8,N
1514622495.9,286047001.0,N
1514622515.7,286047001.4,N
1514622535.5,286047005.8,N
1514622555.4,286047007.0,N
1514622575.2,286047014.0,Y
1514622595.0,286047016.8,P
1514622595.9,286047016.8,N
1514622615.8,286047017.9,N
1514622635.6,286047021.0,N
1514622655.4,286047025.1,Y
1514622675.3,286047009.9,P
1514622695.1,286047008.8,P
1514622715.8,286047008.1,P
1514622735.7,286047009.9,Y
1514622755.5,286046998.5,P
1514622775.3,286047002.7,N
1514622795.2,286047003.5,N
1514622815.9,286047003.3,N
1514622835.7,286047006.0,N
1514622855.6,286047001.9,N
1514622875.4,286046998.1,N
1514622895.2,286046998.4,N
1514622915.0,286047000.3,N
1514622916.0,286047000.3,N
1514622935.8,286046998.5,N
1514622955.6,286046999.0,N
1514622975.4,286046995.0,N
1514622995.3,286046997.9,N
1514623015.1,286046996.9,N
1514623035.8,286046997.0,N
1514623055.7,286046994.6,N
1514623075.5,286046996.0,N
1514623095.3,286046994.0,N
1514623115.2,286046996.1,N
1514623135.9,286047000.6,N
1514623155.7,286047001.0,N
1514623175.6,286047001.4,N
1514623195.4,286046999.7,N
1514623215.2,286047001.1,N
1514623235.0,286047002.7,N
1514623235.9,286047002.7,N
1514623255.8,286046997.2,N
1514623275.6,286046992.4,N
1514623295.4,286046987.7,Y
1514623315.3,286046985.4,P
1514623335.1,286046985.5,N
1514623355.8,286046986.1,N
1514623375.7,286046987.5,N
1514623395.5,286046987.4,N
1514623415.3,286046988.5,N
1514623435.2,286046987.4,N
1514623455.9,286046985.9,Y
1514623475.7,286046996.0,P
1514623495.6,286046996.0,N
1514623515.4,286046993.4,N
1514623535.2,286046994.8,N
1514623555.1,286046993.7,N
1514623556.0,286046993.7,N
1514623575.8,286046994.2,N
1514623595.6,286046993.2,Y
1514623615.5,286047001.0,P
1514623635.3,286047000.2,N
1514623655.1,286047001.0,N
1514623675.9,286046997.2,N
1514623695.7,286046997.8,N
1514623715.5,286046999.3,N
1514623735.4,286047001.0,N
1514623755.2,286046999.0,N
1514623775.0,286046993.3,N
1514623775.9,286046993.3,N
1514623795.7,286046996.1,N
1514623815.6,286046993.5,N
1514623835.4,286046994.8,N
1514623855.2,286046992.8,N
1514623875.1,286046991.2,N
1514623876.0,286046991.2,N
1514623895.8,286046991.4,N
1514623915.6,286046990.0,N
1514623935.5,286046985.9,Y
1514623955.3,286046989.9,P
1514623975.1,286046986.0,P
1514623995.9,286046989.3,N
1514624015.7,286046992.9,N
1514624035.5,286046989.8,Y
1514624055.4,286046999.6,P
1514624075.2,286046998.9,N
1514624095.0,286046999.9,N
1514624095.9,286046999.9,N
1514624115.8,286047000.6,N
1514624135.6,286046995.8,N
1514624155.4,286046992.9,N
1514624175.3,286046995.8,N
1514624195.1,286046991.8,N
1514624196.0,286046991.8,N
1514624215.8,286046995.9,N
1514624235.6,286046992.4,N
1514624255.5,286046991.4,N
1514624275.3,286046990.8,N
1514624295.1,286046987.4,Y
1514624315.9,286046994.3,P
1514624335.7,286046992.0,P
1514624355.5,286046993.0,P
1514624375.4,286046990.2,Y
1514624395.2,286046997.2,P
